Date String (YYYY-MM-DD hh:mm:ss) UTC,Instrument flags,Ambient pressure (hPa),Sample flow (lpm),Bypass flow (lpm),Sample temperature (°C),Ambient temperature (°C),ASC tube jacket temperature (°C),LED temperature (°C),Box temperature (°C),Sample RH (%),Span deviation,Mass concentration (μg/m³),Mass concentration (μg/m³),Mass concentration (μg/m³)
DateTimeUTC,F1_M11,P_M11,Q1_M11,Q2_M11,T1_M11,T2_M11,T3_M11,T4_M11,T5_M11,U1_M11,ZSPAN_M11,X0_M11,X2_M11,X1_M11
2021-09-13 00:00:00,,0829.6,5.00,0.00,29.3,25.7,00.0,38.5,30.7,29.9,0001.6,0010.47,0005.60,0004.65
2021-09-13 00:01:00,,0829.6,5.01,0.00,29.2,26.2,00.0,38.4,30.8,29.9,0001.4,0010.67,0005.58,0004.66
2021-09-13 00:02:00,,0829.6,5.00,0.00,29.2,26.7,00.0,38.4,30.9,30.0,0001.3,0010.78,0005.62,0004.66
2021-09-13 00:03:00,,0829.7,5.00,0.00,29.3,27.2,00.0,38.4,31.0,30.0,0001.6,0010.76,0005.59,0004.65
2021-09-13 00:04:00,,0829.8,5.00,0.00,29.3,27.5,00.0,38.4,31.1,29.5,0001.6,0010.63,0005.53,0004.62
2021-09-13 00:05:00,,0829.7,5.01,0.00,29.3,27.8,00.0,38.4,31.2,29.7,0001.6,0010.30,0005.46,0004.60
2021-09-13 00:06:00,,0829.6,4.99,0.00,29.4,28.1,00.0,38.4,31.2,29.9,0001.4,0010.30,0005.46,0004.61
2021-09-13 00:07:00,,0829.7,5.00,0.00,29.4,28.3,00.0,38.4,31.3,29.8,0000.8,0010.21,0005.42,0004.60
2021-09-13 00:08:00,,0829.7,5.00,0.00,29.5,28.4,00.0,38.4,31.3,29.7,0000.8,0009.58,0005.42,0004.60
2021-09-13 00:09:00,,0829.7,5.00,0.00,29.5,28.6,00.0,38.5,31.4,29.6,0000.5,0009.90,0005.44,0004.60
2021-09-13 00:10:00,,0829.7,5.00,0.00,29.6,28.7,00.0,38.5,31.4,29.5,0000.6,0009.86,0005.44,0004.60
2021-09-13 00:11:00,,0829.7,4.99,0.00,29.6,28.0,00.0,38.5,31.3,29.5,0001.0,0009.73,0005.42,0004.60
2021-09-13 00:12:00,,0829.7,5.00,0.00,29.4,26.2,00.0,38.5,30.8,29.8,0000.6,0009.42,0005.42,0004.59
2021-09-13 00:13:00,,0829.7,5.00,0.00,29.3,25.5,00.0,38.4,30.6,30.2,0000.3,0009.46,0005.40,0004.59
2021-09-13 00:14:00,,0829.7,5.00,0.00,29.2,25.7,00.0,38.4,30.6,30.1,0000.5,0010.35,0005.46,0004.60
2021-09-13 00:15:00,,0829.8,5.01,0.00,29.1,26.2,00.0,38.4,30.7,30.1,0000.4,0010.56,0005.50,0004.62
2021-09-13 00:16:00,,0829.8,4.99,0.00,29.1,26.7,00.0,38.3,30.8,31.3,0000.3,0010.72,0005.57,0004.65
2021-09-13 00:17:00,,0829.8,5.01,0.00,29.2,27.1,00.0,38.3,30.9,32.0,-000.0,0010.88,0005.62,0004.66
2021-09-13 00:18:00,,0829.8,4.99,0.00,29.2,27.4,00.0,38.3,31.0,32.2,0000.1,0010.99,0005.65,0004.66
2021-09-13 00:19:00,,0829.8,5.00,0.00,29.2,27.7,00.0,38.3,31.1,32.5,-000.0,0011.00,0005.65,0004.67
2021-09-13 00:20:00,,0829.8,5.01,0.00,29.3,27.9,00.0,38.3,31.1,32.1,0000.0,0010.61,0005.60,0004.67
2021-09-13 00:21:00,,0829.8,5.00,0.00,29.3,28.1,00.0,38.3,31.2,32.3,0000.0,0010.71,0005.61,0004.67
2021-09-13 00:22:00,,0829.8,5.01,0.00,29.4,28.3,00.0,38.3,31.2,32.3,0000.0,0010.94,0005.62,0004.67
2021-09-13 00:23:00,,0829.8,5.01,0.00,29.4,28.4,00.0,38.4,31.3,32.3,0000.0,0011.16,0005.63,0004.68
2021-09-13 00:24:00,,0829.8,4.99,0.00,29.5,28.5,00.0,38.4,31.3,31.6,0000.1,0011.17,0005.64,0004.69
2021-09-13 00:25:00,,0829.8,5.00,0.00,29.5,28.6,00.0,38.4,31.4,31.5,0000.0,0010.21,0005.60,0004.70
2021-09-13 00:26:00,,0829.7,5.01,0.00,29.5,28.7,00.0,38.4,31.4,31.5,0000.1,0010.67,0005.58,0004.70
2021-09-13 00:27:00,,0829.7,4.99,0.00,29.5,27.9,00.0,38.5,31.2,31.6,0000.1,0010.99,0005.60,0004.70
2021-09-13 00:28:00,,0829.7,5.01,0.00,29.4,26.6,00.0,38.4,30.9,31.8,-000.1,0011.03,0005.61,0004.70
2021-09-13 00:29:00,,0829.7,5.00,0.00,29.4,26.4,00.0,38.4,30.9,31.8,-000.3,0011.00,0005.61,0004.70
2021-09-13 00:30:00,,0829.7,5.01,0.00,29.3,26.7,00.0,38.4,30.9,31.8,-000.3,0011.66,0005.62,0004.69
2021-09-13 00:31:00,,0829.7,4.99,0.00,29.3,27.1,00.0,38.4,31.0,31.7,-001.1,0011.87,0005.68,0004.69
2021-09-13 00:32:00,,0829.7,5.01,0.00,29.3,27.5,00.0,38.4,31.1,31.4,-001.2,0012.23,0005.69,0004.69
2021-09-13 00:33:00,,0829.7,4.99,0.00,29.3,27.7,00.0,38.4,31.2,31.2,-001.1,0012.68,0005.72,0004.70
2021-09-13 00:34:00,,0829.6,5.02,0.00,29.4,28.0,00.0,38.4,31.2,31.2,-000.2,0012.79,0005.72,0004.70
2021-09-13 00:35:00,,0829.7,4.99,0.00,29.4,28.2,00.0,38.4,31.3,30.9,0000.0,0012.90,0005.71,0004.70
2021-09-13 00:36:00,,0829.7,5.00,0.00,29.5,28.3,00.0,38.4,31.3,30.9,0000.0,0012.87,0005.69,0004.70
2021-09-13 00:37:00,,0829.7,5.00,0.00,29.5,28.4,00.0,38.4,31.4,30.9,0000.0,0012.25,0005.68,0004.70
2021-09-13 00:38:00,,0829.5,5.00,0.00,29.5,28.5,00.0,38.5,31.4,30.3,0000.0,0011.79,0005.68,0004.70
2021-09-13 00:39:00,,0829.6,5.00,0.00,29.6,28.6,00.0,38.5,31.5,29.8,0000.0,0011.61,0005.62,0004.69
2021-09-13 00:40:00,,0829.7,5.00,0.00,29.6,27.5,00.0,38.5,31.2,29.7,0000.0,0012.23,0005.60,0004.69
2021-09-13 00:41:00,,0829.9,4.99,0.00,29.4,25.8,00.0,38.5,30.7,29.9,0000.0,0011.83,0005.60,0004.69
2021-09-13 00:42:00,,0829.8,5.01,0.00,29.3,25.5,00.0,38.5,30.6,30.0,0000.0,0011.68,0005.59,0004.71
2021-09-13 00:43:00,,0829.6,5.00,0.00,29.2,25.8,00.0,38.4,30.7,30.2,0000.0,0011.26,0005.55,0004.70
2021-09-13 00:44:00,,0829.6,4.99,0.00,29.2,26.3,00.0,38.4,30.8,30.2,0000.0,0010.47,0005.51,0004.69
2021-09-13 00:45:00,,0829.6,5.00,0.00,29.2,26.7,00.0,38.3,30.9,30.3,-000.1,0010.30,0005.53,0004.69
2021-09-13 00:46:00,,0829.6,5.00,0.00,29.2,27.1,00.0,38.3,30.9,30.4,0000.3,0009.99,0005.54,0004.69
2021-09-13 00:47:00,,0829.6,4.99,0.00,29.2,27.4,00.0,38.3,31.0,30.2,-000.0,0009.95,0005.52,0004.67
2021-09-13 00:48:00,,0829.6,5.02,0.00,29.2,27.7,00.0,38.3,31.1,30.1,0000.1,0009.93,0005.52,0004.67
2021-09-13 00:49:00,,0829.6,5.00,0.00,29.3,27.9,00.0,38.3,31.1,30.3,0000.7,0010.09,0005.49,0004.66
2021-09-13 00:50:00,,0829.6,5.00,0.00,29.3,28.1,00.0,38.3,31.2,30.6,0000.4,0010.46,0005.48,0004.66
2021-09-13 00:51:00,,0829.6,5.00,0.00,29.4,28.2,00.0,38.3,31.2,30.7,0000.6,0009.88,0005.44,0004.65
2021-09-13 00:52:00,,0829.6,5.01,0.00,29.4,28.3,00.0,38.3,31.3,30.4,0001.0,0010.00,0005.45,0004.63
2021-09-13 00:53:00,,0829.6,4.97,0.00,29.4,28.4,00.0,38.4,31.3,30.6,0001.3,0010.15,0005.42,0004.61
2021-09-13 00:54:00,,0829.6,5.00,0.00,29.5,28.5,00.0,38.4,31.4,30.6,0001.3,0010.18,0005.42,0004.60
2021-09-13 00:55:00,,0829.6,5.00,0.00,29.5,28.6,00.0,38.4,31.4,30.6,0001.3,0010.28,0005.44,0004.61
2021-09-13 00:56:00,,0829.5,5.02,0.00,29.6,28.3,00.0,38.4,31.4,30.6,0001.6,0010.34,0005.45,0004.61
2021-09-13 00:57:00,,0829.5,4.99,0.00,29.5,26.7,00.0,38.4,31.0,30.8,0001.6,0010.31,0005.43,0004.60
2021-09-13 00:58:00,,0829.6,5.00,0.00,29.4,26.2,00.0,38.4,30.8,30.8,0001.9,0010.52,0005.50,0004.60
2021-09-13 00:59:00,,0829.6,4.99,0.00,29.3,26.4,00.0,38.4,30.8,30.9,0002.1,0010.79,0005.56,0004.61
